YAOGAN-27

Last updated on Mon Sep 15 2025 00:02:30 GMT+0000 (Coordinated Universal Time)

1 40878U 15040A 25257.29967491 -.00000028 00000+0 38621-4 0 9999 2 40878 100.0944 250.9759 0008750 128.0086 232.1819 13.16054298481377
UTC large
Height (km)
Speed (km/s)
/
Latitude / Longitude
Inclination (degrees)
Orbital Period (minutes)
Azimuth
Elevation
Range (km)
Doppler Factor

Next 0 passes for location: London (51.5072 / 0.1276)

Sorry there are no passes over London.